Location: Knowlton
(51.2333°N, 1.2667°E)
Time: 09:49:20
(UTC+00:00)

Cosmos 1709 Rocket - Pass Details

Date: 18 April 2021
Orbit: 948 x 1002 km, 82.9° (Epoch: 05 May)

Event Time Altitude Azimuth Distance (km) Brightness Sun altitude
Rises 23:37:31 0° 347° (NNW) 3,692 8.3 -27.5°
Reaches altitude 10° 23:40:06 10° 343° (NNW) 2,732 7.3 -27.5°
Maximum altitude 23:46:10 55° 268° (W) 1,149 4.3 -27.6°
Enters shadow 23:46:44 53° 247° (WSW) 1,172 4.2 -27.6°
